Regional Weather Roundup
Issued by NWS Midland/Odessa, TX

Skip options and go directly to product.
Home | Oldest Version | Next Version | Current Version | All | Text Only | Save Text | Print | Product List | Glossary On

Skip product version selection by date and time.   
704
ASUS44 KMAF 200501
RWRMAF
MIDLAND AREA WEATHER ROUNDUP
NATIONAL WEATHER SERVICE MIDLAND TX
1100 PM CST SUN FEB 19 2017

...IN SOUTHWEST TEXAS AND SOUTHEAST NEW MEXICO...

CITY           SKY/WX    TMP DP  RH WIND       PRES   REMARKS
ALPINE         MOCLDY    48  24  38 W10       30.02F
ANDREWS        FAIR      53  29  39 W10       29.90F
ARTESIA        CLEAR     48  30  49 W14       29.92S
BIG SPRING     CLOUDY    52  49  89 S7        29.89S
CARLSBAD       CLEAR     50  29  44 SW7       29.94R
DRYDEN           N/A     55  50  83 SW6       29.89F
FORT STOCKTON  PTCLDY    53  28  38 W9        29.94F
GUAD PASS      CLEAR     43  27  53 W28       29.99S WCI  33
HOBBS          PTCLDY    46  25  42 SW9       29.93F
MARFA          CLEAR     44  21  40 CALM      30.02S
MIDLAND AIRPK  CLOUDY    56  45  67 W7        29.90R
MIDLAND INTL   CLOUDY    54  43  66 W10       29.90S
ODESSA           N/A     53  40  61 W9        29.90F
PECOS          PTCLDY    47  25  41 W7        29.95S
PRESIDIO       FAIR      57  37  47 CALM      30.00R
SEMINOLE       CLOUDY    50  30  46 W13       29.91F
SNYDER         PTCLDY    55  46  70 SW6       29.85F
WINK           PTCLDY    53  26  35 W10       29.92S
$$
...OTHER STATIONS IN TEXAS...

CITY           SKY/WX    TMP DP  RH WIND       PRES   REMARKS
ABILENE        LGT RAIN  54  53  97 SE9       29.92R
AMARILLO       CLOUDY    47  36  65 S10       29.85R
AUSTIN         CLOUDY    73  67  81 SE13      29.88R
BROWNSVILLE    CLOUDY    76  73  91 SE21G29   29.79R
CORPUS CHRISTI CLOUDY    75  72  90 SW12      29.86R
DALLAS FTW     CLOUDY    71  66  84 S13       29.85R
DEL RIO        CLOUDY    59  55  87 W9        29.90R
EL PASO        PTCLDY    52  31  44 W21G26    30.01R
HOUSTON INT    DRIZZLE   70  68  93 SE15      29.90R FOG
LUBBOCK        CLOUDY    52  41  66 SW7       29.83F
SAN ANGELO     CLOUDY    56  52  86 SE6       29.90R
SAN ANTONIO    TSTM      58  56  93 NW30G52   29.93R VSB 3/4
WACO           CLOUDY    70  65  84 S15G23    29.87R
WICHITA FALLS  NOT AVBL
$$
...OTHER LOCATIONS IN NEW MEXICO...

CITY           SKY/WX    TMP DP  RH WIND       PRES   REMARKS
ALAMAGORDO     CLEAR     45  28  53 CALM      30.03S
ALBUQUERQUE    MOCLDY    44  32  62 SW9       30.00R WCI  39
CANNON AFB     CLOUDY    45  29  53 W6        29.89R
CLOVIS         CLEAR     41  28  60 SW9       29.89S WCI  35
HOLLOMAN AFB   CLEAR     47  31  55 CALM      30.05R
ROSWELL        CLEAR     44  28  53 W8          N/A  WCI  39
RUIDOSO        CLOUDY    36  27  69 W9        30.01R WCI  29
SANTA FE       PTCLDY    36  30  79 SW8       29.95R WCI  30
TRUTH OR CONSE CLEAR     44  31  60 N5        30.03R
TUCUMCARI      PTCLDY    49  31  49 W16       29.84R
$$

  • National Weather Service
  • Southern Region Headquarters
  • 819 Taylor Street, Room 10A06
  • Fort Worth, TX 76102
  • Page Author: NWS Fort Worth
  • Web Master: SR-SRH.Webmaster@noaa.gov
  •  
  • Page last modified: 30-Sep-2016 6:36 PM UTC
USA.gov is the U.S. government's official web portal to all federal, state and local government web resources and services.